WMT3235 LEAL-LIMC

Flight info

Callsign WMT3235
Flight time N/A
Altitude 38000
Route MITOS N851 RUXET DCT IZA DCT TUKRO DCT ASMOT DCT PTC DCT CDP DCT CHELY N853 LUMAS DCT UNANA DCT STP DCT RAPED DCT PIGOS DCT EKSID DCT NOSTA DCT EGHIN DCT ANAKI P860 DEVOX
Aircraft A21N/M-SDE2E3FGHIRWXY/LB1

Departure

Time 2026-05-07 14:51
Airport Alicante-Elche Miguel Hernández Airport (LEAL)

Arrival

Time N/A
Airport Milan Malpensa International Airport (LIMC)
Time Latitude Longitude Altitude Speed Heading
2026-05-07 14:31 38.28733 -0.54999 97 ft 0 kts 286°
2026-05-07 14:40 38.28732 -0.54995 97 ft 3 kts 285°
2026-05-07 14:40 38.28727 -0.54962 97 ft 4 kts 267°
2026-05-07 14:40 38.28733 -0.54931 91 ft 4 kts 231°
2026-05-07 14:41 38.28749 -0.54917 92 ft 1 kts 190°
2026-05-07 14:41 38.28753 -0.54916 92 ft 0 kts 190°
2026-05-07 14:46 38.28747 -0.54917 92 ft 5 kts 191°
2026-05-07 14:46 38.28666 -0.54937 90 ft 18 kts 191°
2026-05-07 14:46 38.28510 -0.54970 91 ft 25 kts 189°
2026-05-07 14:47 38.28402 -0.55062 90 ft 15 kts 266°
2026-05-07 14:47 38.28369 -0.55190 92 ft 19 kts 234°
2026-05-07 14:47 38.28330 -0.55353 92 ft 20 kts 280°
2026-05-07 14:47 38.28357 -0.55546 99 ft 25 kts 280°
2026-05-07 14:48 38.28391 -0.55790 99 ft 31 kts 280°
2026-05-07 14:48 38.28434 -0.56095 100 ft 39 kts 280°
2026-05-07 14:48 38.28482 -0.56442 113 ft 42 kts 279°
2026-05-07 14:48 38.28534 -0.56817 127 ft 43 kts 280°
2026-05-07 14:49 38.28583 -0.57170 144 ft 38 kts 280°
2026-05-07 14:49 38.28619 -0.57438 155 ft 18 kts 264°
2026-05-07 14:49 38.28551 -0.57503 155 ft 12 kts 186°
2026-05-07 14:49 38.28476 -0.57511 156 ft 8 kts 171°
2026-05-07 14:50 38.28452 -0.57478 156 ft 5 kts 112°
2026-05-07 14:50 38.28442 -0.57423 155 ft 8 kts 102°
2026-05-07 14:50 38.28405 -0.57167 147 ft 59 kts 99°
2026-05-07 14:50 38.28296 -0.56376 119 ft 123 kts 99°
2026-05-07 14:51 38.28118 -0.55086 256 ft 157 kts 99°
2026-05-07 14:51 38.27920 -0.53737 900 ft 156 kts 99°
2026-05-07 14:51 38.27714 -0.52402 1506 ft 157 kts 98°
2026-05-07 14:51 38.27513 -0.50987 1908 ft 172 kts 91°
2026-05-07 14:52 38.27772 -0.49431 2138 ft 194 kts 60°
2026-05-07 14:52 38.28610 -0.47946 2423 ft 219 kts 51°
2026-05-07 14:52 38.29603 -0.46398 2949 ft 231 kts 52°
2026-05-07 14:52 38.30571 -0.44676 3466 ft 246 kts 58°
2026-05-07 14:53 38.31404 -0.42742 4230 ft 252 kts 64°
2026-05-07 14:53 38.32115 -0.40668 5058 ft 257 kts 68°
2026-05-07 14:53 38.32787 -0.38551 6012 ft 259 kts 68°
2026-05-07 14:53 38.33465 -0.36389 6822 ft 266 kts 69°
2026-05-07 14:54 38.34158 -0.34174 7603 ft 272 kts 69°
2026-05-07 14:54 38.34867 -0.31911 8455 ft 276 kts 69°
2026-05-07 14:54 38.35588 -0.29611 9077 ft 285 kts 69°
2026-05-07 14:54 38.36351 -0.27254 9906 ft 288 kts 68°
2026-05-07 14:55 38.37143 -0.24861 10459 ft 303 kts 68°
2026-05-07 14:55 38.37995 -0.22299 10785 ft 325 kts 68°
2026-05-07 14:55 38.38906 -0.19564 11095 ft 345 kts 68°
2026-05-07 14:55 38.39856 -0.16708 11447 ft 363 kts 68°
2026-05-07 14:56 38.40854 -0.13710 12065 ft 372 kts 68°
2026-05-07 14:56 38.41872 -0.10646 12668 ft 380 kts 68°
2026-05-07 14:56 38.42911 -0.07517 13410 ft 384 kts 68°
2026-05-07 14:56 38.43957 -0.04363 14068 ft 389 kts 68°
2026-05-07 14:57 38.45017 -0.01157 14724 ft 394 kts 68°
2026-05-07 14:57 38.46073 0.02081 15397 ft 398 kts 69°
2026-05-07 14:57 38.47134 0.05372 15969 ft 403 kts 69°
2026-05-07 14:57 38.48199 0.08693 16637 ft 406 kts 69°
2026-05-07 14:58 38.49275 0.12054 17252 ft 411 kts 69°
2026-05-07 14:58 38.50360 0.15448 17871 ft 415 kts 69°
2026-05-07 14:58 38.51459 0.18883 18408 ft 420 kts 69°
2026-05-07 14:58 38.52569 0.22357 18909 ft 424 kts 69°
2026-05-07 14:59 38.53691 0.25868 19395 ft 428 kts 69°
2026-05-07 14:59 38.54819 0.29401 19880 ft 433 kts 69°
2026-05-07 14:59 38.55943 0.32928 20348 ft 436 kts 69°
2026-05-07 14:59 38.57091 0.36533 20827 ft 440 kts 70°
2026-05-07 15:00 38.58250 0.40175 21283 ft 444 kts 70°
2026-05-07 15:00 38.59418 0.43854 21768 ft 447 kts 71°
2026-05-07 15:00 38.60588 0.47546 22253 ft 450 kts 71°
2026-05-07 15:00 38.61699 0.51057 22716 ft 453 kts 71°